STARLINK-35950, 66622

Orbit data source: Space-Track

STARLINK-35950, 66622 is a payload satellite owned by SpaceX/Seattle (US) in LEO that was launched on Sun, 23 Nov 2025 UTC via an FALCON 9 launch vehicle from the Air Force Western Test Range (AFWTR). Payload-class satellites include a variety of spacecraft equipped with specific instruments for various scientific and technological missions. These include communications satellites like Starlink; space stations such as the ISS; scientific satellites like the Hubble; Earth observation satellites from companies like Planet Labs, Umbra, and HawkEye 360; GPS; miniature CubeSats for education and research; and military/defense satellites.

Loading next visibility...
Identifier
66622, 2025-271F
Orbit
LEO
Country
Flag of USUS
Related business
Manufacturer
SpaceX/Seattle
Mission
Operational Commercial Communications
Bus & Motor
STARLINK V2MO, Unknown motor
Mass
575 kg wet, ~530 kg dry
Launch date (UTC)
2025-11-23 (5 months ago)
Launch vehicle
FALCON 9
Launch site
Air Force Western Test Range (AFWTR)
Object type
Payload
Rocket body
Debris
Shape & HBR
Box + 2 Pan, 17.7 m
Radar Cross Section
36.964 m²

Expand to show TLE details & history
Last TLE update: 15 hours ago

TLE from 15 hours ago
0 STARLINK-35950
1 66622U 25271F   26127.92458638  .00010539  00000-0  36733-3 0  9995
2 66622  53.1589 224.9480 0001352  76.5408 283.5744 15.30211729 26636
Epoch: 2026-05-07T22:11Z
TLE epoch observation values (Epoch: 2026-05-07T22:11:24.263Z)
Latitude
0.00004°
Longitude
26.33319°
Altitude
475.862 km
Speed
7.629 km/s
True Right ascension
14h 59m 47s
True Declination
0° 00' 00"
Sunlit
Object was in full shadow at epoch
Visualization orbit readout
Latitude
Unknown
Longitude
Unknown
Altitude
Unknown
Speed
Unknown
Apparent Right ascension
Unknown
Apparent Declination
Unknown
Sunlit
N/A
Visualization observer readout
Local Sidereal Time
21:45:16
Azimuth
Unknown
Elevation
Unknown
Doppler factor
Unknown
Orbital elements
Apogee altitude
476.363 km
Perigee altitude
474.51 km
Semi-major axis
6,853.574 km
Eccentricity
0.00014
Inclination
53.1589°
RAAN
224.948°
Arg. of periapsis
76.5408°
True anomaly
283.55934°
Mean anomaly
283.5744°
Eccentric anomaly
283.56687°
Mean motion
3.82532 °/min
Orbital period
94.11 mins
BSTAR
0.00036733
Loading maneuver chart data...
Computing Atmospheric mass density...
Loading historical data...
Loading historical data...
Loading historical data...
Loading historical data...
Loading historical data...
Loading historical data...
Loading historical data...

Documentation

Showing up to 5 results
|